This is the latest recevied weather packets stored in our database for station/object CQ0XCH-11. If no packets are shown the sender has not sent any weather packets the latest 10 day(s).
| Time | Temp. | Humidity | Pressure | Rain* | Wind** | Luminosity | Snow |
|---|---|---|---|---|---|---|---|
| 1778319369 | 23.33° C | 38% | 982.8 hPa | 4.57 mm | - | - | - |
| 1778319121 | 23.33° C | 39% | 982.9 hPa | 4.57 mm | - | - | - |
| 1778319035 | 22.78° C | 38% | 983 hPa | 4.57 mm | - | - | - |
| 1778318872 | 23.33° C | 39% | 982.9 hPa | 4.57 mm | - | - | - |
| 1778318777 | 23.33° C | 41% | 982.9 hPa | 4.57 mm | - | - | - |
| 1778318661 | 22.78° C | 39% | 983 hPa | 4.57 mm | - | - | - |
| 1778318291 | 22.78° C | 41% | 983.1 hPa | 4.57 mm | - | - | - |
| 1778318142 | 22.22° C | 41% | 983.1 hPa | 4.57 mm | - | - | - |
| 1778318024 | 22.78° C | 40% | 983.1 hPa | 4.57 mm | - | - | - |
| 1778317909 | 22.78° C | 43% | 983.1 hPa | 4.57 mm | - | - | - |
| 1778317787 | 22.22° C | 41% | 983.2 hPa | 4.57 mm | - | - | - |
| 1778317396 | 22.78° C | 41% | 983.2 hPa | 4.57 mm | - | - | - |
| 1778317280 | 22.78° C | 42% | 983.2 hPa | 4.57 mm | - | - | - |
| 1778317180 | 22.22° C | 42% | 983.2 hPa | 4.57 mm | - | - | - |
| 1778317049 | 22.22° C | 43% | 983.1 hPa | 4.57 mm | - | - | - |
| 1778316902 | 22.22° C | 44% | 983.1 hPa | 4.57 mm | - | - | - |
| 1778316822 | 22.22° C | 45% | 983.1 hPa | 4.57 mm | - | - | - |
| 1778316649 | 21.67° C | 46% | 983.1 hPa | 4.57 mm | - | - | - |
| 1778316542 | 21.11° C | 46% | 983.1 hPa | 4.57 mm | - | - | - |
| 1778316402 | 21.11° C | 46% | 983 hPa | 4.57 mm | - | - | - |
| 1778316286 | 20.56° C | 46% | 983.1 hPa | 4.57 mm | - | - | - |
| 1778316162 | 21.11° C | 46% | 983.1 hPa | 4.57 mm | - | - | - |
| 1778316049 | 21.11° C | 47% | 983 hPa | 4.57 mm | - | - | - |
| 1778315922 | 21.11° C | 48% | 983.1 hPa | 4.57 mm | - | - | - |
| 1778315795 | 20.56° C | 47% | 983.1 hPa | 4.57 mm | - | - | - |
* Rain since midnight (hover to see other rain measurements)
** Current wind speed in m/s (hover to see current wind gust speed)